This is the latest recevied weather packets stored in our database for station/object WX7EM. If no packets are shown the sender has not sent any weather packets the latest 10 day(s).
| Time | Temp. | Humidity | Pressure | Rain* | Wind** | Luminosity | Snow |
|---|---|---|---|---|---|---|---|
| 1777595957 | 25° C | 49% | 1013.6 hPa | 0 mm | - | 217 W/m² | - |
| 1777595657 | 25° C | 50% | 1013.4 hPa | 0 mm | - | 133 W/m² | - |
| 1777595352 | 25° C | 49% | 1013.5 hPa | 0 mm | - | 207 W/m² | - |
| 1777595049 | 24.44° C | 52% | 1013.6 hPa | 0 mm | - | 93 W/m² | - |
| 1777594746 | 24.44° C | 52% | 1013.7 hPa | 0 mm | - | 127 W/m² | - |
| 1777594442 | 24.44° C | 52% | 1013.7 hPa | 0 mm | - | 165 W/m² | - |
| 1777594137 | 24.44° C | 53% | 1013.7 hPa | 0 mm | - | 78 W/m² | - |
| 1777593834 | 24.44° C | 53% | 1013.8 hPa | 0 mm | - | 124 W/m² | - |
| 1777593531 | 24.44° C | 52% | 1013.7 hPa | 0 mm | - | 150 W/m² | - |
| 1777593230 | 24.44° C | 52% | 1013.8 hPa | 0 mm | - | 151 W/m² | - |
| 1777592930 | 23.89° C | 54% | 1013.9 hPa | 0 mm | - | 173 W/m² | - |
| 1777592626 | 23.89° C | 52% | 1013.9 hPa | 0 mm | - | 142 W/m² | - |
| 1777592322 | 23.89° C | 52% | 1014 hPa | 0 mm | - | 132 W/m² | - |
| 1777592017 | 23.89° C | 52% | 1014.1 hPa | 0 mm | - | 94 W/m² | - |
| 1777591715 | 23.89° C | 52% | 1014.1 hPa | 0 mm | - | 109 W/m² | - |
| 1777591410 | 23.89° C | 50% | 1014.2 hPa | 0 mm | - | 72 W/m² | - |
| 1777591106 | 23.89° C | 50% | 1014.4 hPa | 0 mm | - | 78 W/m² | - |
| 1777590802 | 23.89° C | 50% | 1014.3 hPa | 0 mm | - | 73 W/m² | - |
| 1777590498 | 23.89° C | 51% | 1014.4 hPa | 0 mm | - | 143 W/m² | - |
| 1777590195 | 23.89° C | 51% | 1014.7 hPa | 0 mm | - | 250 W/m² | - |
| 1777589892 | 23.33° C | 51% | 1014.9 hPa | 0 mm | - | 76 W/m² | - |
| 1777589587 | 23.33° C | 52% | 1014.8 hPa | 0 mm | - | 86 W/m² | - |
| 1777589285 | 23.33° C | 52% | 1014.8 hPa | 0 mm | - | 79 W/m² | - |
| 1777588983 | 22.78° C | 51% | 1015.2 hPa | 0 mm | - | 130 W/m² | - |
| 1777588678 | 22.78° C | 54% | 1015 hPa | 0 mm | - | 116 W/m² | - |
* Rain latest hour (hover to see other rain measurements)
** Current wind speed in m/s (hover to see current wind gust speed)